Harry S. Truman Reservoir Weather Center

Moon Phase Calendar



Harry S. Truman Reservoir Water Level
Online Cameras

 


      

Current Conditions in Valley View
4/20/2024 9:35:50 PM

49°F
Feels Like 46
Clouds
Humidity
48%
Pressure
30.27"
Wind
6.9 mph (N)
Dew Point
31°F
UV Index
0/10 (Low)
Visibility
6 mi

Hourly Forecast

Date & Time Sat, Apr 20
9:00 PM
Sat, Apr 20
10:00 PM
Sat, Apr 20
11:00 PM
Sun, Apr 21
12:00 AM
Sun, Apr 21
1:00 AM
Sun, Apr 21
2:00 AM
Sun, Apr 21
3:00 AM
Sun, Apr 21
4:00 AM
Sun, Apr 21
5:00 AM
Sun, Apr 21
6:00 AM
Sun, Apr 21
7:00 AM
Sun, Apr 21
8:00 AM
Sun, Apr 21
9:00 AM
Sun, Apr 21
10:00 AM
Sun, Apr 21
11:00 AM
Sun, Apr 21
12:00 PM
Sun, Apr 21
1:00 PM
Sun, Apr 21
2:00 PM
Sun, Apr 21
3:00 PM
Sun, Apr 21
4:00 PM
Sun, Apr 21
5:00 PM
Sun, Apr 21
6:00 PM
Sun, Apr 21
7:00 PM
Sun, Apr 21
8:00 PM
Sun, Apr 21
9:00 PM
Sun, Apr 21
10:00 PM
Sun, Apr 21
11:00 PM
Mon, Apr 22
12:00 AM
Mon, Apr 22
1:00 AM
Mon, Apr 22
2:00 AM
Mon, Apr 22
3:00 AM
Mon, Apr 22
4:00 AM
Mon, Apr 22
5:00 AM
Mon, Apr 22
6:00 AM
Mon, Apr 22
7:00 AM
Mon, Apr 22
8:00 AM
Mon, Apr 22
9:00 AM
Mon, Apr 22
10:00 AM
Mon, Apr 22
11:00 AM
Mon, Apr 22
12:00 PM
Mon, Apr 22
1:00 PM
Mon, Apr 22
2:00 PM
Mon, Apr 22
3:00 PM
Mon, Apr 22
4:00 PM
Mon, Apr 22
5:00 PM
Mon, Apr 22
6:00 PM
Mon, Apr 22
7:00 PM
Mon, Apr 22
8:00 PM
Condition
Clouds

Clouds

Clouds

Clouds

Clouds

Clouds

Clouds

Clouds

Clouds

Clouds

Clouds

Clouds

Clear

Clear

Clear

Clear

Clear

Clouds

Clouds

Clouds

Clouds

Clouds

Clouds

Clear

Clear

Clear

Clear

Clear

Clear

Clear

Clear

Clear

Clear

Clear

Clear

Clear

Clear

Clear

Clear

Clouds

Clouds

Clouds

Clouds

Clouds

Clouds

Clouds

Clouds

Clouds
Temperature 48°F49°F48°F46°F43°F41°F38°F38°F37°F36°F37°F42°F47°F51°F53°F56°F57°F58°F59°F59°F58°F57°F54°F47°F44°F43°F42°F41°F40°F40°F39°F38°F38°F37°F38°F44°F51°F56°F59°F62°F64°F66°F66°F66°F66°F64°F62°F57°F
Feels Like 46°F47°F46°F44°F41°F39°F36°F35°F34°F34°F35°F39°F44°F48°F50°F52°F54°F55°F56°F56°F55°F54°F51°F45°F43°F43°F42°F39°F38°F37°F36°F34°F34°F33°F33°F40°F48°F53°F57°F60°F62°F63°F64°F64°F64°F63°F60°F55°F
Cloudiness 80%75%80%85%83%66%86%90%75%63%69%17%10%7%5%5%10%67%41%29%23%19%17%1%0%0%0%0%0%0%0%0%0%0%0%0%3%5%7%14%22%40%70%80%85%88%90%100%
Visibility 6 mi6 mi6 mi6 mi6 mi6 mi6 mi6 mi6 mi6 mi6 mi6 mi6 mi6 mi6 mi6 mi6 mi6 mi6 mi6 mi6 mi6 mi6 mi6 mi6 mi6 mi6 mi6 mi6 mi6 mi6 mi6 mi6 mi6 mi6 mi6 mi6 mi6 mi6 mi6 mi6 mi6 mi6 mi6 mi6 mi6 mi6 mi6 mi
Precipitation 0%0%0%0%0%0%0%0%0%0%0%0%0%0%0%0%0%0%0%0%0%0%0%0%0%0%0%0%0%0%0%0%0%0%0%0%0%0%0%0%0%0%0%0%0%0%0%0%
Humidity 51%48%51%54%59%64%67%68%69%70%67%58%50%44%38%36%35%33%33%34%35%37%49%59%61%63%65%66%67%68%69%71%73%75%75%63%51%44%41%39%37%36%36%36%41%46%51%60%
Dew Point 31°F31°F31°F31°F30°F30°F28°F28°F27°F27°F27°F28°F29°F30°F28°F29°F29°F29°F30°F30°F30°F31°F35°F33°F32°F31°F31°F30°F30°F30°F30°F30°F30°F30°F30°F32°F33°F34°F36°F37°F38°F38°F38°F39°F42°F43°F43°F43°F
Pressure 30.27"30.27"30.27"30.3"30.3"30.33"30.36"30.36"30.36"30.36"30.36"30.39"30.36"30.36"30.36"30.33"30.33"30.3"30.27"30.27"30.24"30.24"30.24"30.27"30.27"30.3"30.27"30.27"30.27"30.27"30.27"30.24"30.24"30.24"30.27"30.24"30.21"30.18"30.18"30.15"30.09"30.06"30.03"30"29.97"29.97"29.94"29.94"
Wind Speed 5.3 mph5.1 mph4.8 mph4.9 mph4.2 mph3.8 mph3.6 mph4.1 mph3.8 mph3.1 mph3.5 mph4.4 mph5.9 mph7.4 mph8.9 mph10.2 mph11 mph10.9 mph10.8 mph10.1 mph9.4 mph8.6 mph5.4 mph3.7 mph3.1 mph2.6 mph2.6 mph3.2 mph3.4 mph3.8 mph4.4 mph5.1 mph4.8 mph5.1 mph5.4 mph6.4 mph8.2 mph9.7 mph11.6 mph12.8 mph13.7 mph14.8 mph15.3 mph15.3 mph12.8 mph11.9 mph10.8 mph8.2 mph
Wind
Direction

N
11°
N

N

N
360°
N
358°
N
351°
N
346°
NNW
334°
NNW
329°
NNW
316°
NW
315°
NW
314°
NW
316°
NW
324°
NW
328°
NNW
330°
NNW
331°
NNW
334°
NNW
337°
NNW
341°
NNW
347°
NNW
360°
N
18°
NNE
46°
NE
83°
E
128°
SE
161°
SSE
174°
S
171°
S
176°
S
169°
S
181°
S
190°
S
201°
SSW
183°
S
187°
S
198°
SSW
207°
SSW
207°
SSW
206°
SSW
208°
SSW
207°
SSW
210°
SSW
211°
SSW
211°
SSW
206°
SSW
192°
SSW

Daily Forecast

Date High Low Precip. Humidity
Today
Apr 20

Clouds
57 °F
40 °F
0%
37%
Sunday
Apr 21

Clear
59 °F
36 °F
0%
35%
Monday
Apr 22

Clouds
66 °F
37 °F
0%
37%
Tuesday
Apr 23

Rain
74 °F
52 °F
52%
60%
Wednesday
Apr 24

Clouds
65 °F
43 °F
0%
38%
Thursday
Apr 25

Rain
50 °F
47 °F
100%
95%
Friday
Apr 26

Rain
70 °F
52 °F
100%
86%
Saturday
Apr 27

Rain
85 °F
65 °F
100%
54%
Sunday
Apr 28

Rain
83 °F
70 °F
100%
63%
Monday
Apr 29

Rain
76 °F
57 °F
100%
49%
Tuesday
Apr 30

Clouds
73 °F
53 °F
0%
52%
Wednesday
May 1

Rain
69 °F
62 °F
100%
88%
Thursday
May 2

Rain
62 °F
51 °F
100%
69%
Friday
May 3

Clear
64 °F
42 °F
0%
40%
Saturday
May 4

Clear
65 °F
44 °F
0%
40%
Sunday
May 5

Clear
66 °F
42 °F
0%
37%

Temperature 8-14 Day Outlook



Precipitation 8-14 Day Outlook






About Us
Contact Us
Site Map
Search Site
Advertise With Us
   
Truman.USLakes.info
THE HARRY S. TRUMAN RESERVOIR WEBSITE

Copyright 2024, Lakes Online
Privacy    |    Legal